SDR28HW EDHL-LEMH

Flight info

Callsign SDR28HW
Flight time 2h 16m
Altitude 35000
Route RAMAR1A RAMAR DCT NORTA P605 ELNAT Z99 MASEK DCT LADOL DCT AKASU DCT BORDI DCT RUBAS/N0444F370 DCT RIXOT RIXOT2B
Aircraft A320/M-SDE3FGHIRWY/LB1

Departure

Time 2026-04-29 06:35
Airport Lübeck Blankensee Airport (EDHL)

Arrival

Time 2026-04-29 08:51
Airport Menorca Airport (LEMH)
Time Latitude Longitude Altitude Speed Heading
2026-04-29 06:15 53.80465 10.70288 60 ft 0 kts 342°
2026-04-29 06:30 53.80463 10.70289 60 ft 2 kts 342°
2026-04-29 06:30 53.80440 10.70306 58 ft 4 kts 316°
2026-04-29 06:31 53.80428 10.70341 57 ft 4 kts 258°
2026-04-29 06:31 53.80429 10.70349 55 ft 0 kts 252°
2026-04-29 06:32 53.80428 10.70344 56 ft 2 kts 252°
2026-04-29 06:33 53.80417 10.70287 58 ft 6 kts 252°
2026-04-29 06:33 53.80403 10.70215 58 ft 7 kts 252°
2026-04-29 06:33 53.80383 10.70132 55 ft 6 kts 225°
2026-04-29 06:33 53.80313 10.70136 56 ft 15 kts 169°
2026-04-29 06:34 53.80215 10.70191 55 ft 14 kts 124°
2026-04-29 06:34 53.80217 10.70270 55 ft 0 kts 74°
2026-04-29 06:34 53.80226 10.70320 60 ft 22 kts 73°
2026-04-29 06:34 53.80360 10.71022 56 ft 99 kts 72°
2026-04-29 06:35 53.80642 10.72441 69 ft 152 kts 72°
2026-04-29 06:35 53.80978 10.74159 628 ft 152 kts 72°
2026-04-29 06:35 53.81302 10.75880 1257 ft 154 kts 73°
2026-04-29 06:35 53.81629 10.77616 1869 ft 155 kts 73°
2026-04-29 06:36 53.81974 10.79431 2147 ft 172 kts 72°
2026-04-29 06:36 53.82365 10.81474 2346 ft 193 kts 72°
2026-04-29 06:36 53.82801 10.83745 2574 ft 213 kts 72°
2026-04-29 06:36 53.83278 10.86245 2860 ft 235 kts 74°
2026-04-29 06:37 53.83406 10.89052 3408 ft 245 kts 99°
2026-04-29 06:37 53.82820 10.91752 4146 ft 247 kts 125°
2026-04-29 06:37 53.81601 10.93782 4897 ft 249 kts 150°
2026-04-29 06:37 53.79973 10.94720 5640 ft 250 kts 176°
2026-04-29 06:38 53.78242 10.94722 6323 ft 258 kts 183°
2026-04-29 06:38 53.76384 10.94555 6795 ft 273 kts 184°
2026-04-29 06:38 53.74467 10.94329 7504 ft 278 kts 185°
2026-04-29 06:38 53.72524 10.94089 8283 ft 282 kts 185°
2026-04-29 06:39 53.70586 10.93531 9020 ft 285 kts 197°
2026-04-29 06:39 53.68715 10.92382 9745 ft 289 kts 201°
2026-04-29 06:39 53.66770 10.91119 10009 ft 311 kts 201°
2026-04-29 06:39 53.64672 10.89771 10199 ft 333 kts 201°
2026-04-29 06:40 53.62472 10.88365 10711 ft 342 kts 201°
2026-04-29 06:40 53.60230 10.86936 11369 ft 347 kts 201°
2026-04-29 06:40 53.57962 10.85496 12038 ft 350 kts 201°
2026-04-29 06:40 53.55672 10.84044 12695 ft 354 kts 201°
2026-04-29 06:41 53.53359 10.82575 13336 ft 357 kts 201°
2026-04-29 06:41 53.51027 10.81091 13956 ft 360 kts 201°
2026-04-29 06:41 53.49467 10.80099 14361 ft 362 kts 201°
2026-04-29 06:41 53.47096 10.78594 14954 ft 366 kts 201°
2026-04-29 06:42 53.44708 10.77082 15533 ft 369 kts 201°
2026-04-29 06:42 53.42296 10.75557 16108 ft 372 kts 201°
2026-04-29 06:42 53.39069 10.73516 16839 ft 376 kts 201°
2026-04-29 06:42 53.37410 10.72469 17207 ft 378 kts 201°
2026-04-29 06:43 53.34938 10.70912 17742 ft 381 kts 201°
2026-04-29 06:43 53.32441 10.69341 18259 ft 384 kts 201°
2026-04-29 06:43 53.29932 10.67764 18781 ft 387 kts 201°
2026-04-29 06:43 53.27394 10.66170 19292 ft 390 kts 201°
2026-04-29 06:44 53.24879 10.64592 19787 ft 393 kts 200°
2026-04-29 06:44 53.22303 10.62982 20286 ft 396 kts 200°
2026-04-29 06:44 53.19712 10.61366 20770 ft 399 kts 200°
2026-04-29 06:44 53.17104 10.59740 21248 ft 402 kts 200°
2026-04-29 06:45 53.14475 10.58098 21704 ft 405 kts 200°
2026-04-29 06:45 53.11825 10.56445 22150 ft 408 kts 200°
2026-04-29 06:45 53.09160 10.54782 22577 ft 410 kts 201°
2026-04-29 06:45 53.06480 10.53115 22993 ft 413 kts 200°
2026-04-29 06:46 53.03779 10.51438 23400 ft 415 kts 200°
2026-04-29 06:46 53.01061 10.49752 23782 ft 418 kts 200°
2026-04-29 06:46 52.98328 10.48061 24165 ft 420 kts 200°
2026-04-29 06:46 52.95580 10.46367 24527 ft 423 kts 200°
2026-04-29 06:47 52.92815 10.44664 24879 ft 425 kts 200°
2026-04-29 06:47 52.90038 10.42956 25215 ft 427 kts 200°
2026-04-29 06:47 52.87244 10.41242 25550 ft 429 kts 200°
2026-04-29 06:47 52.84433 10.39520 25871 ft 432 kts 200°
2026-04-29 06:48 52.81613 10.37788 26191 ft 434 kts 200°
2026-04-29 06:48 52.78814 10.36068 26492 ft 436 kts 200°
2026-04-29 06:48 52.75964 10.34318 26793 ft 438 kts 200°
2026-04-29 06:48 52.73106 10.32567 27083 ft 440 kts 200°
2026-04-29 06:49 52.70231 10.30808 27375 ft 442 kts 200°
2026-04-29 06:49 52.67341 10.29045 27666 ft 444 kts 200°
2026-04-29 06:49 52.64442 10.27282 27933 ft 445 kts 200°
2026-04-29 06:49 52.61529 10.25517 28195 ft 447 kts 200°
2026-04-29 06:50 52.58598 10.23746 28452 ft 449 kts 200°
2026-04-29 06:50 52.55659 10.21969 28702 ft 451 kts 200°
2026-04-29 06:50 52.52715 10.20188 28942 ft 452 kts 200°
2026-04-29 06:50 52.49751 10.18396 29176 ft 454 kts 200°
2026-04-29 06:51 52.46785 10.16602 29399 ft 456 kts 200°
2026-04-29 06:51 52.43804 10.14799 29616 ft 457 kts 200°
2026-04-29 06:51 52.40816 10.12999 29819 ft 459 kts 200°
2026-04-29 06:51 52.37815 10.11195 30013 ft 461 kts 200°
2026-04-29 06:52 52.34799 10.09387 30228 ft 461 kts 200°
2026-04-29 06:52 52.31786 10.07584 30482 ft 461 kts 200°
2026-04-29 06:52 52.28774 10.05784 30740 ft 461 kts 200°
2026-04-29 06:52 52.25771 10.03989 30996 ft 460 kts 200°
2026-04-29 06:53 52.22764 10.02191 31259 ft 460 kts 200°
2026-04-29 06:53 52.19763 10.00398 31516 ft 459 kts 200°
2026-04-29 06:53 52.16765 9.98610 31772 ft 459 kts 200°
2026-04-29 06:53 52.13774 9.96828 32026 ft 458 kts 200°
2026-04-29 06:54 52.10776 9.95051 32279 ft 458 kts 200°
2026-04-29 06:54 52.07827 9.93315 32521 ft 457 kts 200°
2026-04-29 06:54 52.04838 9.91560 32764 ft 457 kts 200°
2026-04-29 06:54 52.01849 9.89799 33004 ft 456 kts 200°
2026-04-29 06:55 51.98871 9.88046 33238 ft 456 kts 200°
2026-04-29 06:55 51.95892 9.86293 33475 ft 455 kts 200°
2026-04-29 06:55 51.92917 9.84543 33707 ft 455 kts 200°
2026-04-29 06:55 51.89940 9.82794 33936 ft 454 kts 200°
2026-04-29 06:56 51.86938 9.81231 34162 ft 454 kts 193°
2026-04-29 06:56 51.83828 9.80379 34384 ft 454 kts 187°
2026-04-29 06:56 51.80691 9.79786 34527 ft 454 kts 187°
2026-04-29 06:57 51.74438 9.78604 34557 ft 452 kts 187°
2026-04-29 06:57 51.68201 9.77412 34556 ft 451 kts 187°
2026-04-29 06:58 51.61965 9.76222 34557 ft 451 kts 187°
2026-04-29 06:58 51.55729 9.75054 34557 ft 451 kts 187°
2026-04-29 06:59 51.49496 9.73896 34558 ft 451 kts 187°
2026-04-29 06:59 51.43255 9.72752 34559 ft 451 kts 186°
2026-04-29 07:00 51.37006 9.71736 34560 ft 451 kts 186°
2026-04-29 07:00 51.30790 9.70763 34561 ft 451 kts 186°
2026-04-29 07:01 51.24541 9.69770 34562 ft 452 kts 186°
2026-04-29 07:01 51.18288 9.68743 34563 ft 452 kts 186°
2026-04-29 07:02 51.12055 9.67536 34564 ft 452 kts 187°
2026-04-29 07:02 51.05823 9.66243 34563 ft 452 kts 187°
2026-04-29 07:03 50.99597 9.64984 34565 ft 452 kts 187°
2026-04-29 07:03 50.93367 9.63774 34565 ft 452 kts 187°
2026-04-29 07:04 50.87117 9.62564 34563 ft 452 kts 187°
2026-04-29 07:04 50.80879 9.61360 34565 ft 452 kts 187°
2026-04-29 07:05 50.74642 9.60163 34565 ft 452 kts 187°
2026-04-29 07:05 50.68462 9.58833 34565 ft 451 kts 189°
2026-04-29 07:06 50.62264 9.57136 34565 ft 451 kts 190°
2026-04-29 07:06 50.56086 9.55381 34565 ft 451 kts 190°
2026-04-29 07:07 50.49894 9.53714 34564 ft 451 kts 189°
2026-04-29 07:07 50.43695 9.52107 34565 ft 451 kts 189°
2026-04-29 07:08 50.37498 9.50518 34564 ft 451 kts 189°
2026-04-29 07:08 50.31295 9.48904 34565 ft 451 kts 189°
2026-04-29 07:09 50.25104 9.47276 34564 ft 451 kts 189°
2026-04-29 07:09 50.18904 9.45648 34564 ft 451 kts 189°
2026-04-29 07:10 50.12706 9.44044 34564 ft 451 kts 189°
2026-04-29 07:10 50.06552 9.42459 34566 ft 451 kts 189°
2026-04-29 07:11 50.00355 9.40861 34566 ft 452 kts 189°
2026-04-29 07:11 49.94156 9.39269 34564 ft 452 kts 189°
2026-04-29 07:12 49.87954 9.37676 34564 ft 451 kts 189°
2026-04-29 07:12 49.81758 9.36098 34565 ft 452 kts 189°
2026-04-29 07:13 49.75555 9.34516 34566 ft 452 kts 189°
2026-04-29 07:13 49.69357 9.32931 34566 ft 452 kts 189°
2026-04-29 07:14 49.63144 9.31357 34840 ft 452 kts 189°
2026-04-29 07:14 49.60045 9.30576 35059 ft 452 kts 189°
2026-04-29 07:14 49.56941 9.29793 35286 ft 451 kts 189°
2026-04-29 07:14 49.53856 9.29012 35499 ft 450 kts 189°
2026-04-29 07:15 49.50815 9.28242 35727 ft 448 kts 189°
2026-04-29 07:15 49.47741 9.27467 35950 ft 447 kts 189°
2026-04-29 07:15 49.44677 9.26698 36168 ft 445 kts 189°
2026-04-29 07:15 49.41622 9.25934 36396 ft 444 kts 189°
2026-04-29 07:16 49.38584 9.25177 36464 ft 443 kts 189°
2026-04-29 07:16 49.35530 9.24411 36128 ft 446 kts 189°
2026-04-29 07:16 49.32461 9.23639 35987 ft 448 kts 189°
2026-04-29 07:16 49.29377 9.22865 35837 ft 449 kts 189°
2026-04-29 07:17 49.26291 9.22096 35688 ft 450 kts 189°
2026-04-29 07:17 49.23198 9.21324 35539 ft 450 kts 189°
2026-04-29 07:17 49.20100 9.20552 35389 ft 451 kts 189°
2026-04-29 07:17 49.17005 9.19779 35239 ft 451 kts 189°
2026-04-29 07:18 49.13910 9.19011 35060 ft 451 kts 189°
2026-04-29 07:18 49.07709 9.17476 35011 ft 452 kts 189°
2026-04-29 07:19 49.01500 9.15945 35012 ft 452 kts 189°
2026-04-29 07:19 48.95291 9.14405 35012 ft 452 kts 189°
2026-04-29 07:20 48.89118 9.12879 35009 ft 452 kts 189°
2026-04-29 07:20 48.82912 9.11361 35012 ft 452 kts 189°
2026-04-29 07:21 48.76699 9.09846 35013 ft 452 kts 189°
2026-04-29 07:21 48.70492 9.08321 35010 ft 452 kts 189°
2026-04-29 07:22 48.64283 9.06799 35006 ft 452 kts 189°
2026-04-29 07:22 48.58070 9.05297 35007 ft 452 kts 189°
2026-04-29 07:23 48.51862 9.03801 35015 ft 452 kts 189°
2026-04-29 07:23 48.45647 9.02299 35011 ft 452 kts 189°
2026-04-29 07:24 48.39436 9.00799 35007 ft 452 kts 189°
2026-04-29 07:24 48.33224 8.99298 35007 ft 452 kts 189°
2026-04-29 07:25 48.27020 8.97808 35012 ft 452 kts 189°
2026-04-29 07:25 48.20802 8.96320 35007 ft 452 kts 189°
2026-04-29 07:26 48.14631 8.94848 35007 ft 452 kts 189°
2026-04-29 07:26 48.08414 8.93413 35007 ft 452 kts 189°
2026-04-29 07:27 48.02197 8.91993 35014 ft 452 kts 189°
2026-04-29 07:27 47.95979 8.90560 35009 ft 452 kts 189°
2026-04-29 07:28 47.89760 8.89132 35007 ft 452 kts 189°
2026-04-29 07:28 47.84066 8.87829 35008 ft 452 kts 189°
2026-04-29 07:29 47.77845 8.86410 35008 ft 452 kts 189°
2026-04-29 07:29 47.71629 8.84997 35014 ft 452 kts 189°
2026-04-29 07:30 47.65452 8.83599 35007 ft 452 kts 189°
2026-04-29 07:30 47.59237 8.82183 35012 ft 452 kts 189°
2026-04-29 07:31 47.49908 8.80083 35011 ft 452 kts 189°
2026-04-29 07:31 47.43691 8.78676 35007 ft 452 kts 189°
2026-04-29 07:32 47.37470 8.77279 35007 ft 452 kts 189°
2026-04-29 07:32 47.31252 8.75884 35011 ft 452 kts 189°
2026-04-29 07:33 47.25032 8.74498 35007 ft 452 kts 189°
2026-04-29 07:33 47.18814 8.73107 35007 ft 452 kts 189°
2026-04-29 07:34 47.12636 8.71723 35007 ft 452 kts 189°
2026-04-29 07:34 47.06417 8.70346 35009 ft 452 kts 188°
2026-04-29 07:35 47.00196 8.68970 35007 ft 452 kts 189°
2026-04-29 07:35 46.93978 8.67590 35007 ft 452 kts 189°
2026-04-29 07:36 46.87758 8.66213 35007 ft 452 kts 188°
2026-04-29 07:36 46.81538 8.64849 35010 ft 452 kts 188°
2026-04-29 07:37 46.75317 8.63496 35015 ft 452 kts 188°
2026-04-29 07:37 46.69096 8.62137 35007 ft 452 kts 189°
2026-04-29 07:38 46.62876 8.60767 35007 ft 452 kts 188°
2026-04-29 07:38 46.56699 8.59416 35013 ft 452 kts 188°
2026-04-29 07:39 46.50480 8.58072 35014 ft 452 kts 188°
2026-04-29 07:39 46.44255 8.56726 35011 ft 452 kts 188°
2026-04-29 07:40 46.38033 8.55379 35007 ft 452 kts 188°
2026-04-29 07:40 46.32866 8.54265 35008 ft 452 kts 188°
2026-04-29 07:41 46.26642 8.52925 35011 ft 452 kts 188°
2026-04-29 07:41 46.20422 8.51582 35007 ft 452 kts 188°
2026-04-29 07:42 46.14202 8.50241 35011 ft 452 kts 188°
2026-04-29 07:42 46.08040 8.48474 35013 ft 452 kts 194°
2026-04-29 07:43 46.01951 8.46214 35010 ft 452 kts 194°
2026-04-29 07:43 45.95861 8.43964 35006 ft 452 kts 194°
2026-04-29 07:44 45.89768 8.41730 35015 ft 452 kts 194°
2026-04-29 07:44 45.84309 8.39733 35006 ft 452 kts 194°
2026-04-29 07:45 45.78213 8.37502 35010 ft 452 kts 194°
2026-04-29 07:45 45.72126 8.35277 35014 ft 452 kts 194°
2026-04-29 07:46 45.66028 8.33055 35014 ft 452 kts 194°
2026-04-29 07:46 45.59933 8.30837 35007 ft 452 kts 194°
2026-04-29 07:47 45.53845 8.28633 35008 ft 452 kts 194°
2026-04-29 07:47 45.47748 8.26431 35013 ft 452 kts 194°
2026-04-29 07:48 45.41655 8.24223 35009 ft 452 kts 194°
2026-04-29 07:48 45.35560 8.22021 35007 ft 452 kts 194°
2026-04-29 07:49 45.29507 8.19847 35010 ft 452 kts 194°
2026-04-29 07:49 45.23408 8.17662 35013 ft 452 kts 194°
2026-04-29 07:50 45.17314 8.15483 35009 ft 452 kts 194°
2026-04-29 07:50 45.11213 8.13314 35007 ft 452 kts 194°
2026-04-29 07:51 45.05117 8.11140 35007 ft 452 kts 194°
2026-04-29 07:51 44.99025 8.08960 35007 ft 452 kts 194°
2026-04-29 07:52 44.92923 8.06790 35011 ft 452 kts 194°
2026-04-29 07:52 44.86825 8.04636 35009 ft 452 kts 194°
2026-04-29 07:53 44.80727 8.02482 35007 ft 452 kts 194°
2026-04-29 07:53 44.74632 8.00333 35011 ft 452 kts 194°
2026-04-29 07:54 44.68528 7.98184 35013 ft 452 kts 194°
2026-04-29 07:54 44.62475 7.96057 35006 ft 452 kts 194°
2026-04-29 07:55 44.56379 7.93924 35006 ft 452 kts 194°
2026-04-29 07:55 44.50282 7.91805 35006 ft 452 kts 194°
2026-04-29 07:56 44.44176 7.89680 35009 ft 452 kts 194°
2026-04-29 07:56 44.38070 7.87549 35014 ft 452 kts 194°
2026-04-29 07:57 44.31969 7.85427 35013 ft 452 kts 194°
2026-04-29 07:57 44.25863 7.83317 35006 ft 452 kts 194°
2026-04-29 07:58 44.19759 7.81207 35006 ft 452 kts 194°
2026-04-29 07:58 44.13701 7.79108 35006 ft 452 kts 194°
2026-04-29 07:59 44.07602 7.76995 35009 ft 452 kts 194°
2026-04-29 07:59 44.01592 7.74487 35009 ft 451 kts 203°
2026-04-29 08:00 43.95998 7.70531 35011 ft 451 kts 208°
2026-04-29 08:00 43.90457 7.66423 35011 ft 452 kts 208°
2026-04-29 08:01 43.85098 7.62474 35011 ft 452 kts 208°
2026-04-29 08:01 43.79642 7.58468 35006 ft 452 kts 208°
2026-04-29 08:02 43.74089 7.54391 35012 ft 452 kts 208°
2026-04-29 08:02 43.68547 7.50325 35204 ft 449 kts 210°
2026-04-29 08:03 43.65813 7.48325 35039 ft 441 kts 210°
2026-04-29 08:03 43.63146 7.46379 35047 ft 439 kts 210°
2026-04-29 08:03 43.57760 7.42454 35059 ft 438 kts 210°
2026-04-29 08:04 43.52374 7.38530 35051 ft 438 kts 210°
2026-04-29 08:04 43.46982 7.34614 35054 ft 438 kts 210°
2026-04-29 08:05 43.41587 7.30704 35045 ft 438 kts 210°
2026-04-29 08:05 43.36191 7.26797 35047 ft 438 kts 210°
2026-04-29 08:06 43.30798 7.22908 35037 ft 438 kts 210°
2026-04-29 08:06 43.25403 7.19020 35040 ft 438 kts 210°
2026-04-29 08:07 43.20011 7.15136 35031 ft 437 kts 210°
2026-04-29 08:07 43.14625 7.11272 35026 ft 437 kts 210°
2026-04-29 08:08 43.09264 7.07434 35036 ft 437 kts 210°
2026-04-29 08:08 43.03873 7.03581 35023 ft 437 kts 210°
2026-04-29 08:09 42.98480 6.99733 35032 ft 437 kts 210°
2026-04-29 08:09 42.93093 6.95900 35028 ft 437 kts 210°
2026-04-29 08:10 42.87704 6.92069 35024 ft 437 kts 210°
2026-04-29 08:10 42.82315 6.88244 35023 ft 436 kts 209°
2026-04-29 08:11 42.76934 6.84426 35018 ft 436 kts 209°
2026-04-29 08:11 42.71548 6.80628 35014 ft 436 kts 209°
2026-04-29 08:12 42.66199 6.76861 35015 ft 436 kts 209°
2026-04-29 08:12 42.60817 6.73076 35011 ft 436 kts 209°
2026-04-29 08:13 42.55429 6.69290 35011 ft 436 kts 209°
2026-04-29 08:13 42.50047 6.65506 35011 ft 436 kts 209°
2026-04-29 08:14 42.44664 6.61734 35012 ft 436 kts 209°
2026-04-29 08:14 42.39275 6.57968 35011 ft 436 kts 210°
2026-04-29 08:15 42.34244 6.53454 35011 ft 434 kts 218°
2026-04-29 08:15 42.29374 6.48608 35005 ft 435 kts 218°
2026-04-29 08:16 42.24502 6.43774 35006 ft 435 kts 218°
2026-04-29 08:16 42.19627 6.38948 35004 ft 435 kts 218°
2026-04-29 08:17 42.14745 6.34130 35005 ft 435 kts 218°
2026-04-29 08:17 42.09856 6.29319 35005 ft 435 kts 217°
2026-04-29 08:18 42.04965 6.24519 35007 ft 435 kts 217°
2026-04-29 08:18 42.00104 6.19743 35006 ft 436 kts 217°
2026-04-29 08:19 41.95210 6.14942 35004 ft 436 kts 217°
2026-04-29 08:19 41.90307 6.10142 35003 ft 436 kts 217°
2026-04-29 08:20 41.85378 6.05334 35003 ft 442 kts 217°
2026-04-29 08:20 41.80364 6.00444 34999 ft 448 kts 217°
2026-04-29 08:21 41.75318 5.95545 34999 ft 448 kts 217°
2026-04-29 08:21 41.70267 5.90645 34998 ft 449 kts 217°
2026-04-29 08:22 41.65214 5.85744 34996 ft 449 kts 217°
2026-04-29 08:22 41.60151 5.80858 34994 ft 449 kts 217°
2026-04-29 08:23 41.55084 5.75983 34997 ft 449 kts 217°
2026-04-29 08:23 41.50024 5.71103 34993 ft 449 kts 217°
2026-04-29 08:24 41.44965 5.66233 34991 ft 449 kts 216°
2026-04-29 08:24 41.39894 5.61373 34990 ft 449 kts 216°
2026-04-29 08:25 41.34908 5.56606 34715 ft 438 kts 216°
2026-04-29 08:25 41.32386 5.54352 34469 ft 437 kts 210°
2026-04-29 08:25 41.29715 5.52409 34229 ft 438 kts 209°
2026-04-29 08:26 41.27032 5.50472 33989 ft 440 kts 209°
2026-04-29 08:26 41.24342 5.48541 33717 ft 441 kts 209°
2026-04-29 08:26 41.21639 5.46607 33443 ft 441 kts 209°
2026-04-29 08:26 41.18934 5.44672 33174 ft 441 kts 209°
2026-04-29 08:27 41.16238 5.42739 32909 ft 440 kts 209°
2026-04-29 08:27 41.13553 5.40814 32641 ft 438 kts 208°
2026-04-29 08:27 41.10880 5.38903 32376 ft 435 kts 208°
2026-04-29 08:27 41.08219 5.37004 32116 ft 433 kts 208°
2026-04-29 08:28 41.05577 5.35116 31858 ft 431 kts 208°
2026-04-29 08:28 41.02947 5.33240 31607 ft 428 kts 208°
2026-04-29 08:28 41.00331 5.31378 31349 ft 426 kts 208°
2026-04-29 08:28 40.97727 5.29527 31103 ft 423 kts 208°
2026-04-29 08:29 40.95137 5.27687 30850 ft 421 kts 208°
2026-04-29 08:29 40.92563 5.25858 30607 ft 419 kts 208°
2026-04-29 08:29 40.90004 5.24037 30360 ft 417 kts 208°
2026-04-29 08:29 40.87459 5.22227 30118 ft 414 kts 208°
2026-04-29 08:30 40.84926 5.20426 29842 ft 412 kts 208°
2026-04-29 08:30 40.79929 5.16882 29291 ft 409 kts 208°
2026-04-29 08:30 40.77429 5.15112 29006 ft 407 kts 208°
2026-04-29 08:31 40.74941 5.13354 28723 ft 404 kts 208°
2026-04-29 08:31 40.72479 5.11620 28243 ft 399 kts 208°
2026-04-29 08:31 40.70044 5.09905 27747 ft 395 kts 208°
2026-04-29 08:31 40.67634 5.08206 27244 ft 391 kts 208°
2026-04-29 08:32 40.65246 5.06524 26773 ft 387 kts 208°
2026-04-29 08:32 40.62879 5.04858 26291 ft 384 kts 208°
2026-04-29 08:32 40.60533 5.03207 25830 ft 381 kts 208°
2026-04-29 08:32 40.58204 5.01572 25380 ft 378 kts 208°
2026-04-29 08:33 40.55894 4.99948 24930 ft 375 kts 208°
2026-04-29 08:33 40.53595 4.98334 24487 ft 372 kts 208°
2026-04-29 08:33 40.51321 4.96741 24052 ft 370 kts 207°
2026-04-29 08:33 40.49056 4.95157 23621 ft 367 kts 207°
2026-04-29 08:34 40.46839 4.93608 23140 ft 364 kts 207°
2026-04-29 08:34 40.44613 4.92054 22708 ft 360 kts 207°
2026-04-29 08:34 40.42413 4.90517 22283 ft 356 kts 207°
2026-04-29 08:34 40.40236 4.88997 21853 ft 353 kts 207°
2026-04-29 08:35 40.38075 4.87494 21424 ft 350 kts 207°
2026-04-29 08:35 40.35934 4.86005 20979 ft 347 kts 207°
2026-04-29 08:35 40.33809 4.84524 20566 ft 345 kts 208°
2026-04-29 08:35 40.31696 4.83051 20134 ft 343 kts 208°
2026-04-29 08:36 40.29594 4.81588 19699 ft 341 kts 208°
2026-04-29 08:36 40.27501 4.80131 19265 ft 340 kts 208°
2026-04-29 08:36 40.25414 4.78683 18832 ft 339 kts 208°
2026-04-29 08:36 40.23332 4.77239 18406 ft 338 kts 208°
2026-04-29 08:37 40.21255 4.75796 17931 ft 337 kts 208°
2026-04-29 08:37 40.19187 4.74360 17505 ft 335 kts 208°
2026-04-29 08:37 40.17135 4.72935 17084 ft 333 kts 208°
2026-04-29 08:37 40.15096 4.71519 16676 ft 331 kts 208°
2026-04-29 08:38 40.13068 4.70115 16263 ft 329 kts 207°
2026-04-29 08:38 40.11044 4.68717 15980 ft 330 kts 207°
2026-04-29 08:38 40.09012 4.67313 15961 ft 331 kts 207°
2026-04-29 08:38 40.07658 4.66379 15959 ft 332 kts 207°
2026-04-29 08:39 40.05614 4.64971 15964 ft 332 kts 207°
2026-04-29 08:39 40.03567 4.63564 15966 ft 333 kts 207°
2026-04-29 08:39 40.00838 4.61682 15094 ft 335 kts 207°
2026-04-29 08:39 39.98794 4.60276 14368 ft 330 kts 207°
2026-04-29 08:40 39.96774 4.58889 13643 ft 326 kts 207°
2026-04-29 08:40 39.95427 4.57965 13133 ft 323 kts 207°
2026-04-29 08:40 39.93454 4.56610 12352 ft 319 kts 207°
2026-04-29 08:40 39.91503 4.55267 11593 ft 315 kts 207°
2026-04-29 08:41 39.89582 4.53946 10852 ft 311 kts 207°
2026-04-29 08:41 39.87683 4.52642 10134 ft 307 kts 207°
2026-04-29 08:41 39.85827 4.51368 9395 ft 304 kts 207°
2026-04-29 08:41 39.83939 4.50180 8625 ft 299 kts 202°
2026-04-29 08:42 39.81990 4.49287 7874 ft 296 kts 195°
2026-04-29 08:42 39.80013 4.48604 7138 ft 292 kts 197°
2026-04-29 08:42 39.78129 4.47653 6418 ft 289 kts 202°
2026-04-29 08:42 39.76291 4.46612 5663 ft 286 kts 202°
2026-04-29 08:43 39.74481 4.45562 4928 ft 283 kts 202°
2026-04-29 08:43 39.72696 4.44508 4177 ft 280 kts 202°
2026-04-29 08:43 39.70941 4.43447 3562 ft 274 kts 204°
2026-04-29 08:43 39.69479 4.42004 3321 ft 258 kts 227°
2026-04-29 08:44 39.68425 4.40208 3072 ft 243 kts 232°
2026-04-29 08:44 39.67483 4.38463 2822 ft 229 kts 232°
2026-04-29 08:44 39.66604 4.36799 2586 ft 219 kts 233°
2026-04-29 08:44 39.65739 4.35167 2496 ft 219 kts 232°
2026-04-29 08:45 39.64881 4.33540 2497 ft 218 kts 232°
2026-04-29 08:45 39.64017 4.31900 2500 ft 221 kts 232°
2026-04-29 08:45 39.63234 4.30190 2492 ft 221 kts 246°
2026-04-29 08:45 39.62746 4.28289 2501 ft 223 kts 251°
2026-04-29 08:46 39.62427 4.26348 2487 ft 224 kts 268°
2026-04-29 08:46 39.62707 4.24365 2505 ft 225 kts 289°
2026-04-29 08:46 39.63253 4.22458 2501 ft 227 kts 292°
2026-04-29 08:46 39.63979 4.20661 2489 ft 223 kts 315°
2026-04-29 08:47 39.65209 4.19564 2531 ft 212 kts 338°
2026-04-29 08:47 39.66558 4.18815 2511 ft 210 kts 342°
2026-04-29 08:47 39.67934 4.18260 2490 ft 204 kts 358°
2026-04-29 08:47 39.69323 4.18390 2499 ft 198 kts 13°
2026-04-29 08:48 39.70685 4.18671 2508 ft 198 kts 14°
2026-04-29 08:48 39.72042 4.18953 2513 ft 197 kts 13°
2026-04-29 08:48 39.73390 4.19227 2530 ft 195 kts 13°
2026-04-29 08:48 39.74726 4.19483 2414 ft 193 kts 12°
2026-04-29 08:49 39.76038 4.19721 2138 ft 185 kts 13°
2026-04-29 08:49 39.77263 4.19953 1933 ft 172 kts 14°
2026-04-29 08:49 39.78387 4.20181 1761 ft 156 kts 15°
2026-04-29 08:49 39.79437 4.20449 1575 ft 155 kts 17°
2026-04-29 08:50 39.80505 4.20688 1408 ft 156 kts 14°
2026-04-29 08:50 39.81564 4.20883 1122 ft 151 kts 14°
2026-04-29 08:50 39.82602 4.21085 900 ft 150 kts 14°
2026-04-29 08:50 39.83628 4.21307 659 ft 148 kts 15°
2026-04-29 08:51 39.84620 4.21528 422 ft 142 kts 15°
2026-04-29 08:51 39.85566 4.21716 294 ft 129 kts 13°
2026-04-29 08:51 39.86270 4.21861 302 ft 64 kts
2026-04-29 08:51 39.86547 4.21922 306 ft 8 kts
2026-04-29 08:52 39.86574 4.21974 301 ft 9 kts 88°
2026-04-29 08:52 39.86558 4.22082 298 ft 7 kts 99°
2026-04-29 08:52 39.86552 4.22132 298 ft 6 kts 99°
2026-04-29 08:52 39.86543 4.22203 293 ft 0 kts 98°
2026-04-29 08:53 39.86540 4.22230 296 ft 8 kts 98°
2026-04-29 08:54 39.86531 4.22305 289 ft 7 kts 102°
2026-04-29 08:54 39.86490 4.22318 288 ft 5 kts 189°
2026-04-29 08:54 39.86475 4.22346 289 ft 6 kts 107°
2026-04-29 08:54 39.86468 4.22401 286 ft 0 kts 99°
2026-04-29 08:55 39.86468 4.22398 286 ft 0 kts 99°
2026-04-29 08:55 39.86468 4.22399 286 ft 0 kts 99°